This demonstration page uses our WeatherBlox Daily Observations layout. Learn more.

Hourly Observations for July 31, 2015

Temp ( °F °C ) Dew Point ( °F °C ) Humidity (%) Winds ( mph kmh ) Pressure ( in mb ) Visibility ( mi km ) Precip ( " mm )
12:15 am 00:15 Clear 71 21.5 64 17.9 80 80 S 3 6 30.06 1018 10 16.0934 0 0
12:35 am 00:35 Clear 69 20.8 64 17.7 83 83 S 3 6 30.12 1020 10 16.0934 0 0
12:55 am 00:55 Clear 69 20.7 63 17.4 81 81 Calm 30.12 1020 10 16.0934 0 0
1:15 am 01:15 Clear 68 20.1 64 17.7 86 86 Calm 30.12 1020 10 16.0934 0 0
1:35 am 01:35 Clear 69 20.7 64 18 85 85 SSW 5 7 30.12 1020 10 16.0934 0 0
1:55 am 01:55 Clear 68 20.2 64 17.7 86 86 S 5 7 30.12 1020 10 16.0934 0 0
2:15 am 02:15 Clear 68 20.1 64 17.7 86 86 SSW 3 6 30.12 1020 10 16.0934 0 0
2:35 am 02:35 Clear 68 20.1 64 17.6 86 86 Calm 30.12 1020 10 16.0934 0 0
2:55 am 02:55 Clear 67 19.3 63 17.1 87 87 SSW 3 6 30.12 1020 10 16.0934 0 0
3:15 am 03:15 Clear 66 19 62 16.9 88 88 SSW 5 7 30.12 1020 10 16.0934 0 0
3:35 am 03:35 Clear 68 20 64 17.8 87 87 SSW 6 9 30.12 1020 10 16.0934 0 0
3:55 am 03:55 Clear 68 20 64 17.7 87 87 SSW 5 7 30.12 1020 10 16.0934 0 0
4:15 am 04:15 Clear 68 19.8 64 17.7 88 88 SSW 3 6 30.12 1020 10 16.0934 0 0
4:35 am 04:35 Clear 67 19.7 64 17.6 88 88 SSW 3 6 30.12 1020 10 16.0934 0 0
4:55 am 04:55 Clear 67 19.5 64 17.5 88 88 SSW 6 9 30.12 1020 10 16.0934 0 0
5:15 am 05:15 Partly Cloudy 67 19.3 64 17.5 89 89 S 5 7 30.12 1020 10 16.0934 0 0
5:35 am 05:35 Partly Cloudy 67 19.3 64 17.5 89 89 S 5 7 30.12 1020 10 16.0934 0 0
5:55 am 05:55 Clear 67 19.3 64 17.7 91 91 SSW 7 11 30.12 1020 10 16.0934 0 0
6:15 am 06:15 Clear 67 19.3 64 17.7 91 91 SSW 6 9 30.12 1020 10 16.0934 0 0
6:35 am 06:35 Sunny 67 19.5 64 18 91 91 SSW 6 9 30.12 1020 10 16.0934 0 0
6:55 am 06:55 Partly Cloudy 67 19.6 65 18.1 91 91 SW 3 6 30.12 1020 10 16.0934 0 0
7:15 am 07:15 Partly Cloudy 68 20.1 65 18.5 91 91 SW 5 7 30.12 1020 10 16.0934 0 0
7:35 am 07:35 Sunny 69 20.3 65 18.6 90 90 Calm 30.12 1020 10 16.0934 0 0
7:55 am 07:55 Sunny 70 21.1 66 19.1 88 88 Calm 30.12 1020 10 16.0934 0 0
8:15 am 08:15 Sunny 72 22.3 68 19.8 86 86 SW 6 9 30.09 1019 10 16.0934 0 0
8:35 am 08:35 Partly Cloudy 73 22.5 68 20 86 86 SW 8 13 30.09 1019 10 16.0934 0 0
8:55 am 08:55 Partly Cloudy 74 23.3 68 20.1 82 82 SW 6 9 30.09 1019 10 16.0934 0 0
9:15 am 09:15 Sunny 75 23.9 68 20.2 80 80 WSW 5 7 30.09 1019 10 16.0934 0 0
9:35 am 09:35 Sunny 78 25.4 69 20.6 75 75 SW 5 7 30.06 1018 10 16.0934 0 0
9:55 am 09:55 Sunny 80 26.6 69 20.6 70 70 SSW 5 7 30.06 1018 10 16.0934 0 0
10:15 am 10:15 Sunny 81 27.2 69 20.6 67 67 W 7 11 30.06 1018 10 16.0934 0.03 0.762
10:35 am 10:35 Sunny 82 27.7 68 20 63 63 WSW 6 9 30.06 1018 10 16.0934 0.03 0.762
10:55 am 10:55 Sunny 83 28.5 68 19.9 60 60 WSW 8 13 30.03 1017 10 16.0934 0.03 0.762
11:15 am 11:15 Sunny 84 28.8 67 19.2 56 56 WSW 6 9 30.03 1017 10 16.0934 0 0
11:35 am 11:35 Sunny 85 29.2 66 19.1 55 55 SW 7 11 30.03 1017 10 16.0934 0 0
11:55 am 11:55 Sunny 85 29.7 66 18.9 52 52 WSW 6 9 30.03 1017 10 16.0934 0 0
12:15 pm 12:15 Sunny 86 30 66 18.9 51 51 SSE 3 6 30.03 1017 10 16.0934 0 0
12:35 pm 12:35 Sunny 86 29.9 65 18.6 51 51 SSW 6 9 30.03 1017 10 16.0934 0 0
12:55 pm 12:55 Sunny 88 31 65 18.1 46 46 WSW 5 7 30.03 1017 10 16.0934 0 0
1:15 pm 13:15 Sunny 87 30.7 65 18.2 47 47 SSE 6 9 30 1016 10 16.0934 0 0
1:35 pm 13:35 Sunny 88 31.1 65 18.2 46 46 SW 5 7 30 1016 10 16.0934 0 0
1:55 pm 13:55 Sunny 88 31.1 65 18.2 46 46 SSW 7 11 30 1016 10 16.0934 0 0
2:15 pm 14:15 Sunny 88 31.1 65 18.4 47 47 SW 5 7 30 1016 10 16.0934 0 0
2:35 pm 14:35 Partly Cloudy 86 30.2 65 18.5 50 50 SSE 6 9 30 1016 10 16.0934 0 0
2:55 pm 14:55 Partly Cloudy 87 30.6 64 17.7 46 46 SSE 3 6 29.97 1015 10 16.0934 0 0
3:15 pm 15:15 Mostly Cloudy 89 31.4 64 17.9 45 45 SE 6 9 29.97 1015 10 16.0934 0 0
3:35 pm 15:35 Partly Cloudy 89 31.8 62 16.8 41 41 SSE 7 11 29.94 1014 10 16.0934 0 0
3:55 pm 15:55 Partly Cloudy 90 32.1 61 16.2 38 38 SSE 7 11 29.94 1014 10 16.0934 0 0
4:15 pm 16:15 Partly Cloudy 91 33 59 14.9 34 34 SSW 9 15 29.94 1014 10 16.0934 0 0
4:35 pm 16:35 Sunny 92 33.2 58 14.5 32 32 SW 7 11 29.94 1014 10 16.0934 0 0
4:55 pm 16:55 Sunny 91 33 58 14.2 32 32 S 7 11 29.91 1013 10 16.0934 0 0
5:15 pm 17:15 Sunny 92 33.1 57 13.8 31 31 SSW 6 9 29.91 1013 10 16.0934 0 0
5:35 pm 17:35 Sunny 92 33.1 57 14.1 32 32 SSW 7 11 29.91 1013 10 16.0934 0 0
5:55 pm 17:55 Sunny 92 33.1 57 14.1 32 32 SSW 6 9 29.91 1013 10 16.0934 0 0
6:15 pm 18:15 Sunny 92 33.4 58 14.6 32 32 SW 6 9 29.88 1012 10 16.0934 0 0
6:35 pm 18:35 Sunny 91 33 59 14.8 33 33 SSW 6 9 29.88 1012 10 16.0934 0 0
7:15 pm 19:15 Sunny 91 32.5 59 14.8 34 34 S 5 7 29.88 1012 10 16.0934 0 0
7:35 pm 19:35 Sunny 88 31.1 65 18.3 46 46 SSE 5 7 29.91 1013 10 16.0934 0 0
7:55 pm 19:55 Sunny 83 28.5 66 18.8 56 56 E 21 33 29.94 1014 10 16.0934 0 0
8:15 pm 20:15 Sunny 74 23.3 60 15.5 62 62 E 16 26 30 1016 10 16.0934 0 0
8:35 pm 20:35 Sunny 73 22.6 59 15 62 62 E 15 24 30 1016 10 16.0934 0 0
8:55 pm 20:55 Clear 72 22 59 14.8 64 64 E 10 17 30.03 1017 10 16.0934 0 0
9:15 pm 21:15 Clear 71 21.7 59 14.8 65 65 E 12 19 30.03 1017 10 16.0934 0 0
9:35 pm 21:35 Clear 70 21.3 59 15 67 67 E 10 17 30.03 1017 10 16.0934 0 0
9:55 pm 21:55 Partly Cloudy 69 20.7 59 15.2 71 71 ESE 8 13 30.03 1017 10 16.0934 0 0
10:15 pm 22:15 Partly Cloudy 69 20.5 59 15.2 72 72 ESE 8 13 30.03 1017 10 16.0934 0 0
10:35 pm 22:35 Clear 68 20.1 59 15.2 74 74 ESE 3 6 30.06 1018 10 16.0934 0 0
10:55 pm 22:55 Clear 67 19.2 60 15.6 80 80 Calm 30.06 1018 10 16.0934 0 0
11:15 pm 23:15 Clear 66 18.8 60 15.6 82 82 ESE 6 9 30.06 1018 10 16.0934 0 0
11:35 pm 23:35 Clear 65 18.5 61 16 85 85 ESE 6 9 30.06 1018 10 16.0934 0 0
11:55 pm 23:55 Clear 66 18.7 61 16.1 85 85 SE 3 6 30.06 1018 10 16.0934 0 0

Powered by AerisWeather